Time,TemperatureF,DewpointF,PressureIn,WindDirection,WindDirectionDegrees,WindSpeedMPH,WindSpeedGustMPH,Humidity,HourlyPrecipIn,Conditions,Clouds,dailyrainin,SoftwareType,DateUTC
2013-10-02 00:11:00,46.2,28.0,29.71,NNE,31,3.0,-999.0,49,-99.99,,,0.00,weatherlink.com 1.10,2013-10-02 06:11:00,
2013-10-02 00:26:00,44.6,28.0,29.74,NNE,31,0.0,-999.0,53,-99.99,,,0.00,weatherlink.com 1.10,2013-10-02 06:26:00,
2013-10-02 00:41:00,43.5,28.0,29.73,NNE,31,3.0,-999.0,54,-99.99,,,0.00,weatherlink.com 1.10,2013-10-02 06:41:00,
2013-10-02 00:56:00,42.6,28.0,29.74,NNE,31,0.0,-999.0,57,-99.99,,,0.00,weatherlink.com 1.10,2013-10-02 06:56:00,
2013-10-02 01:11:00,42.3,27.0,29.74,NNE,30,2.0,-999.0,56,-99.99,,,0.00,weatherlink.com 1.10,2013-10-02 07:11:00,
2013-10-02 01:26:00,41.8,28.0,29.74,NNE,15,2.0,-999.0,59,-99.99,,,0.00,weatherlink.com 1.10,2013-10-02 07:26:00,
2013-10-02 01:41:00,41.9,28.0,29.73,NNE,15,3.0,-999.0,59,-99.99,,,0.00,weatherlink.com 1.10,2013-10-02 07:41:00,
2013-10-02 01:56:00,41.8,28.0,29.73,NNE,15,2.0,-999.0,59,-99.99,,,0.00,weatherlink.com 1.10,2013-10-02 07:56:00,
2013-10-02 02:11:00,43.2,28.0,29.73,NNE,17,0.0,-999.0,55,-99.99,,,0.00,weatherlink.com 1.10,2013-10-02 08:11:00,
2013-10-02 02:26:00,42.9,28.0,29.73,NNE,17,1.0,-999.0,55,-99.99,,,0.00,weatherlink.com 1.10,2013-10-02 08:26:00,
2013-10-02 02:41:00,41.2,28.0,29.73,NNE,17,0.0,-999.0,59,-99.99,,,0.00,weatherlink.com 1.10,2013-10-02 08:41:00,
2013-10-02 02:56:00,41.8,28.0,29.73,NNE,17,1.0,-999.0,58,-99.99,,,0.00,weatherlink.com 1.10,2013-10-02 08:56:00,
2013-10-02 03:11:00,41.1,28.0,29.72,NNE,17,0.0,-999.0,59,-99.99,,,0.00,weatherlink.com 1.10,2013-10-02 09:11:00,
2013-10-02 03:26:00,39.8,26.0,29.73,NNE,17,0.0,-999.0,59,-99.99,,,0.00,weatherlink.com 1.10,2013-10-02 09:26:00,
2013-10-02 03:41:00,39.8,27.0,29.73,NNE,17,0.0,-999.0,60,-99.99,,,0.00,weatherlink.com 1.10,2013-10-02 09:41:00,
2013-10-02 03:57:00,38.5,26.0,29.73,NNE,17,0.0,-999.0,62,-99.99,,,0.00,weatherlink.com 1.10,2013-10-02 09:57:00,
2013-10-02 04:12:00,38.3,27.0,29.74,NNE,17,2.0,-999.0,63,-99.99,,,0.00,weatherlink.com 1.10,2013-10-02 10:12:00,
2013-10-02 04:27:00,37.8,27.0,29.74,NNE,17,0.0,-999.0,64,-99.99,,,0.00,weatherlink.com 1.10,2013-10-02 10:27:00,
2013-10-02 04:42:00,38.0,27.0,29.75,North,1,2.0,-999.0,64,-99.99,,,0.00,weatherlink.com 1.10,2013-10-02 10:42:00,
2013-10-02 04:57:00,37.5,27.0,29.75,North,1,3.0,-999.0,65,-99.99,,,0.00,weatherlink.com 1.10,2013-10-02 10:57:00,
2013-10-02 05:12:00,37.5,27.0,29.75,North,1,3.0,-999.0,65,-99.99,,,0.00,weatherlink.com 1.10,2013-10-02 11:12:00,
2013-10-02 05:27:00,37.0,27.0,29.75,North,1,0.0,-999.0,68,-99.99,,,0.00,weatherlink.com 1.10,2013-10-02 11:27:00,
2013-10-02 05:43:00,38.2,28.0,29.77,North,1,0.0,-999.0,66,-99.99,,,0.00,weatherlink.com 1.10,2013-10-02 11:43:00,
2013-10-02 05:58:00,37.9,27.0,29.77,North,1,2.0,-999.0,64,-99.99,,,0.00,weatherlink.com 1.10,2013-10-02 11:58:00,
2013-10-02 06:12:00,36.6,27.0,29.77,North,1,3.0,-999.0,67,-99.99,,,0.00,weatherlink.com 1.10,2013-10-02 12:12:00,
2013-10-02 06:28:00,36.3,27.0,29.78,North,1,4.0,-999.0,68,-99.99,,,0.00,weatherlink.com 1.10,2013-10-02 12:28:00,
2013-10-02 06:43:00,35.5,26.0,29.83,North,1,2.0,-999.0,69,-99.99,,,0.00,weatherlink.com 1.10,2013-10-02 12:43:00,
2013-10-02 06:58:00,35.6,27.0,29.84,North,1,2.0,-999.0,70,-99.99,,,0.00,weatherlink.com 1.10,2013-10-02 12:58:00,
2013-10-02 07:13:00,35.3,26.0,29.83,North,1,2.0,-999.0,70,-99.99,,,0.00,weatherlink.com 1.10,2013-10-02 13:13:00,
2013-10-02 07:29:00,35.8,27.0,29.84,North,1,2.0,-999.0,70,-99.99,,,0.00,weatherlink.com 1.10,2013-10-02 13:29:00,
2013-10-02 07:44:00,36.9,27.0,29.90,North,1,3.0,-999.0,68,-99.99,,,0.00,weatherlink.com 1.10,2013-10-02 13:44:00,
2013-10-02 07:59:00,40.1,29.0,29.90,North,1,1.0,-999.0,65,-99.99,,,0.00,weatherlink.com 1.10,2013-10-02 13:59:00,
2013-10-02 08:14:00,43.8,29.0,29.86,North,1,2.0,-999.0,56,-99.99,,,0.00,weatherlink.com 1.10,2013-10-02 14:14:00,
2013-10-02 08:29:00,46.1,30.0,29.86,North,1,0.0,-999.0,53,-99.99,,,0.00,weatherlink.com 1.10,2013-10-02 14:29:00,
2013-10-02 08:45:00,48.6,31.0,29.89,North,4,0.0,-999.0,51,-99.99,,,0.00,weatherlink.com 1.10,2013-10-02 14:45:00,
2013-10-02 09:00:00,50.8,31.0,29.89,North,4,1.0,-999.0,47,-99.99,,,0.00,weatherlink.com 1.10,2013-10-02 15:00:00,
2013-10-02 09:15:00,53.5,32.0,29.88,North,4,1.0,-999.0,44,-99.99,,,0.00,weatherlink.com 1.10,2013-10-02 15:15:00,
2013-10-02 09:30:00,56.5,32.0,29.86,NNE,29,1.0,-999.0,39,-99.99,,,0.00,weatherlink.com 1.10,2013-10-02 15:30:00,
2013-10-02 09:45:00,59.3,31.0,29.84,NNE,29,1.0,-999.0,35,-99.99,,,0.00,weatherlink.com 1.10,2013-10-02 15:45:00,
2013-10-02 10:00:00,62.4,29.0,29.82,NNE,29,1.0,-999.0,28,-99.99,,,0.00,weatherlink.com 1.10,2013-10-02 16:00:00,
2013-10-02 10:15:00,63.9,27.0,29.80,East,89,4.0,-999.0,25,-99.99,,,0.00,weatherlink.com 1.10,2013-10-02 16:15:00,
2013-10-02 10:30:00,64.8,26.0,29.79,ESE,108,0.0,-999.0,23,-99.99,,,0.00,weatherlink.com 1.10,2013-10-02 16:30:00,
2013-10-02 10:45:00,65.5,26.0,29.78,SE,127,1.0,-999.0,22,-99.99,,,0.00,weatherlink.com 1.10,2013-10-02 16:45:00,
2013-10-02 11:01:00,66.6,24.0,29.78,ESE,110,0.0,-999.0,20,-99.99,,,0.00,weatherlink.com 1.10,2013-10-02 17:01:00,
2013-10-02 11:16:00,67.8,27.0,29.77,ESE,122,0.0,-999.0,22,-99.99,,,0.00,weatherlink.com 1.10,2013-10-02 17:16:00,
2013-10-02 11:31:00,68.4,27.0,29.76,SSE,165,0.0,-999.0,21,-99.99,,,0.00,weatherlink.com 1.10,2013-10-02 17:31:00,
2013-10-02 11:47:00,69.6,28.0,29.79,SSE,168,3.0,-999.0,21,-99.99,,,0.00,weatherlink.com 1.10,2013-10-02 17:47:00,
2013-10-02 12:02:00,69.3,28.0,29.77,SSE,164,0.0,-999.0,21,-99.99,,,0.00,weatherlink.com 1.10,2013-10-02 18:02:00,
2013-10-02 12:16:00,69.9,26.0,29.77,SSW,207,0.0,-999.0,19,-99.99,,,0.00,weatherlink.com 1.10,2013-10-02 18:16:00,
2013-10-02 12:31:00,70.9,30.0,29.77,SSW,193,4.0,-999.0,22,-99.99,,,0.00,weatherlink.com 1.10,2013-10-02 18:31:00,
2013-10-02 12:47:00,70.6,25.0,29.77,SSE,151,0.0,-999.0,18,-99.99,,,0.00,weatherlink.com 1.10,2013-10-02 18:47:00,
2013-10-02 13:02:00,71.1,25.0,29.76,SE,143,1.0,-999.0,18,-99.99,,,0.00,weatherlink.com 1.10,2013-10-02 19:02:00,
2013-10-02 13:18:00,72.3,26.0,29.76,WNW,291,0.0,-999.0,18,-99.99,,,0.00,weatherlink.com 1.10,2013-10-02 19:18:00,
2013-10-02 13:32:00,73.0,26.0,29.74,SSE,154,0.0,-999.0,17,-99.99,,,0.00,weatherlink.com 1.10,2013-10-02 19:32:00,
2013-10-02 13:47:00,74.2,25.0,29.72,SSE,148,3.0,-999.0,16,-99.99,,,0.00,weatherlink.com 1.10,2013-10-02 19:47:00,
2013-10-02 14:03:00,73.9,26.0,29.72,NW,311,0.0,-999.0,17,-99.99,,,0.00,weatherlink.com 1.10,2013-10-02 20:03:00,
2013-10-02 14:18:00,74.0,26.0,29.70,ESE,115,0.0,-999.0,17,-99.99,,,0.00,weatherlink.com 1.10,2013-10-02 20:18:00,
2013-10-02 14:34:00,74.6,22.0,29.70,West,280,0.0,-999.0,14,-99.99,,,0.00,weatherlink.com 1.10,2013-10-02 20:34:00,
2013-10-02 14:48:00,74.7,22.0,29.70,South,184,5.0,-999.0,14,-99.99,,,0.00,weatherlink.com 1.10,2013-10-02 20:48:00,
2013-10-02 15:03:00,74.9,21.0,29.70,WNW,293,5.0,-999.0,13,-99.99,,,0.00,weatherlink.com 1.10,2013-10-02 21:03:00,
2013-10-02 15:19:00,75.4,21.0,29.69,SW,234,0.0,-999.0,13,-99.99,,,0.00,weatherlink.com 1.10,2013-10-02 21:19:00,
2013-10-02 15:34:00,75.4,21.0,29.70,SSW,193,4.0,-999.0,13,-99.99,,,0.00,weatherlink.com 1.10,2013-10-02 21:34:00,
2013-10-02 15:48:00,74.7,19.0,29.70,SW,234,2.0,-999.0,12,-99.99,,,0.00,weatherlink.com 1.10,2013-10-02 21:48:00,
2013-10-02 16:03:00,75.6,21.0,29.68,WSW,242,0.0,-999.0,13,-99.99,,,0.00,weatherlink.com 1.10,2013-10-02 22:03:00,
2013-10-02 16:18:00,75.4,21.0,29.68,SW,218,2.0,-999.0,13,-99.99,,,0.00,weatherlink.com 1.10,2013-10-02 22:18:00,
2013-10-02 16:34:00,75.4,23.0,29.68,SW,226,4.0,-999.0,14,-99.99,,,0.00,weatherlink.com 1.10,2013-10-02 22:34:00,
2013-10-02 16:49:00,75.8,23.0,29.68,WSW,244,11.0,-999.0,14,-99.99,,,0.00,weatherlink.com 1.10,2013-10-02 22:49:00,
2013-10-02 17:04:00,75.1,23.0,29.68,SW,217,4.0,-999.0,14,-99.99,,,0.00,weatherlink.com 1.10,2013-10-02 23:04:00,
2013-10-02 17:20:00,75.1,23.0,29.68,SSW,211,2.0,-999.0,14,-99.99,,,0.00,weatherlink.com 1.10,2013-10-02 23:20:00,
2013-10-02 17:35:00,74.9,24.0,29.67,West,274,5.0,-999.0,15,-99.99,,,0.00,weatherlink.com 1.10,2013-10-02 23:35:00,
2013-10-02 17:51:00,74.6,24.0,29.68,SW,220,1.0,-999.0,15,-99.99,,,0.00,weatherlink.com 1.10,2013-10-02 23:51:00,
2013-10-02 18:04:00,74.2,25.0,29.68,SSW,212,0.0,-999.0,16,-99.99,,,0.00,weatherlink.com 1.10,2013-10-03 00:04:00,
2013-10-02 18:20:00,73.3,24.0,29.68,WSW,255,4.0,-999.0,16,-99.99,,,0.00,weatherlink.com 1.10,2013-10-03 00:20:00,
2013-10-02 18:35:00,71.8,23.0,29.69,West,274,0.0,-999.0,16,-99.99,,,0.00,weatherlink.com 1.10,2013-10-03 00:35:00,
2013-10-02 18:50:00,69.9,24.0,29.70,West,274,0.0,-999.0,18,-99.99,,,0.00,weatherlink.com 1.10,2013-10-03 00:50:00,
2013-10-02 19:05:00,66.6,24.0,29.72,West,274,0.0,-999.0,20,-99.99,,,0.00,weatherlink.com 1.10,2013-10-03 01:05:00,
2013-10-02 19:20:00,63.4,26.0,29.74,West,274,0.0,-999.0,24,-99.99,,,0.00,weatherlink.com 1.10,2013-10-03 01:20:00,
2013-10-02 19:35:00,61.3,26.0,29.70,West,274,0.0,-999.0,26,-99.99,,,0.00,weatherlink.com 1.10,2013-10-03 01:35:00,
2013-10-02 19:50:00,59.0,26.0,29.72,West,274,1.0,-999.0,28,-99.99,,,0.00,weatherlink.com 1.10,2013-10-03 01:50:00,
2013-10-02 20:05:00,56.6,26.0,29.74,WNW,302,3.0,-999.0,31,-99.99,,,0.00,weatherlink.com 1.10,2013-10-03 02:05:00,
2013-10-02 20:20:00,53.1,27.0,29.76,NW,311,2.0,-999.0,36,-99.99,,,0.00,weatherlink.com 1.10,2013-10-03 02:20:00,
2013-10-02 20:35:00,52.3,27.0,29.71,NNW,334,2.0,-999.0,37,-99.99,,,0.00,weatherlink.com 1.10,2013-10-03 02:35:00,
2013-10-02 20:50:00,51.6,27.0,29.72,North,353,3.0,-999.0,38,-99.99,,,0.00,weatherlink.com 1.10,2013-10-03 02:50:00,
2013-10-02 21:05:00,50.7,29.0,29.72,North,353,0.0,-999.0,43,-99.99,,,0.00,weatherlink.com 1.10,2013-10-03 03:05:00,
2013-10-02 21:20:00,49.9,28.0,29.73,North,355,0.0,-999.0,43,-99.99,,,0.00,weatherlink.com 1.10,2013-10-03 03:20:00,
2013-10-02 21:35:00,51.3,27.0,29.68,North,359,2.0,-999.0,39,-99.99,,,0.00,weatherlink.com 1.10,2013-10-03 03:35:00,
2013-10-02 21:50:00,51.0,29.0,29.67,North,359,3.0,-999.0,43,-99.99,,,0.00,weatherlink.com 1.10,2013-10-03 03:50:00,
2013-10-02 22:05:00,51.4,28.0,29.67,North,6,5.0,-999.0,40,-99.99,,,0.00,weatherlink.com 1.10,2013-10-03 04:05:00,
2013-10-02 22:20:00,50.2,26.0,29.68,NNE,21,2.0,-999.0,39,-99.99,,,0.00,weatherlink.com 1.10,2013-10-03 04:20:00,
2013-10-02 22:35:00,50.1,26.0,29.65,NE,50,2.0,-999.0,40,-99.99,,,0.00,weatherlink.com 1.10,2013-10-03 04:35:00,
2013-10-02 22:50:00,49.6,26.0,29.66,NE,44,0.0,-999.0,40,-99.99,,,0.00,weatherlink.com 1.10,2013-10-03 04:50:00,
2013-10-02 23:05:00,50.1,26.0,29.66,NE,44,0.0,-999.0,39,-99.99,,,0.00,weatherlink.com 1.10,2013-10-03 05:05:00,
2013-10-02 23:20:00,49.1,27.0,29.66,NE,44,2.0,-999.0,42,-99.99,,,0.00,weatherlink.com 1.10,2013-10-03 05:20:00,
2013-10-02 23:35:00,47.1,28.0,29.66,NE,44,1.0,-999.0,47,-99.99,,,0.00,weatherlink.com 1.10,2013-10-03 05:35:00,
2013-10-02 23:50:00,47.4,28.0,29.66,NE,44,2.0,-999.0,47,-99.99,,,0.00,weatherlink.com 1.10,2013-10-03 05:50:00,